Flag for Germany Weather past 2 weeks in Fürstenfeldbruck, Bavaria, Germany

Now
36 °F

Sprinkles. Passing clouds.


Feels Like: 28 °F
Forecast: 31 / 43 °F
Wind: 10 mph from West

Location: Oberpfaffenhofen

Current Time: Mar 2, 2015 at 10:29:11 PM

Latest Report: Mar 2, 2015 at 6:50 PM


Visibility: N/A

Pressure: 29.92 "Hg

Humidity: 93%

Dew point: 34 °F

Location of FürstenfeldbruckLocation

Historic Weather in Fürstenfeldbruck — Graph

°F

Fürstenfeldbruck temperature yesterday

Maximum temperature yesterday: 37 °F (at 11:20 AM)
Minimum temperature yesterday: 34 °F (at 8:50 AM)
Average temperature yesterday: 35 °F

Past Weeks' High & Low Weather Summary

 TemperatureHumidityPressure
High57 °F (Feb 20, 3:20 PM)100% (Feb 16, 6:50 AM)30.66 "Hg (Feb 16, 6:50 AM)
Low21 °F (Feb 27, 6:50 AM)21% (Feb 20, 3:20 PM)29.47 "Hg (Feb 21, 12:50 PM)
Average34 °F80%30.05 "Hg
* Reported Feb 16 6:50 AM — Mar 2 6:50 PM, Fürstenfeldbruck, Weather by CustomWeather, © 2015

Note: Actual official high and low records may vary slightly from our data, if they occured in-between our weather recording intervals... More about our weather records

Advertising

Fürstenfeldbruck weather history for previous 24 hours

 ConditionsComfort  
Time TempWeatherWind HumidityBarometerVisibility
6:50 PM
Mon, Mar 2
36 °FSprinkles. Passing clouds.10 mph93%29.92 "HgN/A
6:20 PM36 °FSprinkles. Passing clouds.13 mph93%29.89 "Hg6 mi
5:50 PM36 °FLight rain. Partly sunny.12 mph93%29.86 "HgN/A
5:20 PM36 °FLight rain. Partly sunny.10 mph93%29.86 "HgN/A
4:50 PM36 °FLight rain. Partly sunny.9 mph93%29.83 "HgN/A
4:20 PM36 °FSprinkles. Partly sunny.12 mph87%29.83 "HgN/A
3:50 PM37 °FRain showers. Partly sunny.17 mph87%29.83 "Hg4 mi
3:20 PM39 °FBroken clouds.16 mph81%29.83 "HgN/A
2:50 PM39 °FBroken clouds.15 mph81%29.83 "HgN/A
2:20 PM37 °FLight rain. Partly sunny.15 mph87%29.80 "HgN/A
1:50 PM39 °FSprinkles. Partly sunny.16 mph81%29.80 "HgN/A
1:20 PM39 °FSprinkles. Partly sunny.18 mph81%29.80 "HgN/A
12:50 PM39 °FPartly sunny.12 mph87%29.77 "HgN/A
12:20 PM39 °FSunny.13 mph81%29.77 "Hg10 mi
11:50 AM37 °FSprinkles. Partly sunny.10 mph87%29.77 "HgN/A
11:20 AM39 °FSprinkles. Broken clouds.13 mph81%29.77 "HgN/A
10:50 AM39 °FBroken clouds.13 mph87%29.74 "HgN/A
10:20 AM37 °FLight rain. Partly sunny.16 mph87%29.74 "Hg4 mi
9:50 AM39 °FSprinkles. Broken clouds.15 mph87%29.74 "Hg4 mi
9:20 AM41 °FLots of rain. Broken clouds.24 mph87%29.71 "Hg4 mi
8:50 AM45 °FBroken clouds.14 mph81%29.65 "HgN/A
8:20 AM45 °FSprinkles. Broken clouds.10 mph87%29.68 "Hg5 mi
7:50 AM45 °FSprinkles. Partly sunny.15 mph81%29.65 "HgN/A
7:20 AM46 °FPartly sunny.20 mph76%29.65 "HgN/A
6:50 AM46 °FLight rain. Passing clouds.17 mph76%29.65 "HgN/A
Weather by CustomWeather, © 2015

See weather overviewHow to use our weather pages